Location: Jastrz?bniki
(50.3667°N, 20.3833°E)
Time: 12:31:28
(UTC+00:00)

Cosmos 1470 - Pass Details

Date: 05 August 2024
Orbit: 481 x 499 km, 82.5° (Epoch: 09 September)

Event Time Altitude Azimuth Distance (km) Brightness Sun altitude
Exits shadow 01:26:02 17° 179° (S) 1,328 4.3 -14.0°
Maximum altitude 01:28:49 70° 98° (E) 544 2.8 -13.7°
Drops below altitude 10° 01:32:37 10° 14° (NNE) 1,737 6.4 -13.3°
Sets 01:34:46 0° 13° (NNE) 2,630 7.4 -13.1°
